Погода в Даштабаде

Узбекистан     40°07′41″N   68°29′25″E
темп.,
°C
ветер,
м/с
пор.,
м/с
влажн.,
%
обл.,
%
осадки,
мм/ч
давл.,
гПа
погр.,
м
27 февраля, сб
сб2723:00−5юв236788 0.0 102958
02:00−4юв1165100 0.0 102833
05:00−4в1264100 0.0 102870
08:00−3в2362100 0.1 1028122
11:00+1юв2252100 0.2 1029266
14:00+4вюв334296 0.0 1027653
17:00+4вюв354476 0.0 1027353
20:00+1юв44541 0.0 103061
28 февраля, вс
вс2823:00+1вюв818441 0.0 1029540
02:00+1вюв1019410 0.0 1027510
05:00+1вюв918450 0.0 1026426
08:00+2вюв1018430 0.0 1025467
11:00+6вюв1013370 0.0 1022628
14:00+10вюв1011320 0.0 1019710
17:00+10вюв812310 0.0 1019658
20:00+6вюв714385 0.0 1021386
1 марта, пн
пн123:00+6вюв6124150 0.0 1021292
02:00+5вюв61139100 0.0 1021244
05:00+5вюв5741100 0.0 1020127
08:00+5вюв5739100 0.0 1021130
11:00+12вюв792969 0.0 1019328
14:00+15вюв78240 0.0 1018427
17:00+15вюв79260 0.0 1018351
20:00+11вюв58350 0.0 1020136
2 марта, вт
вт223:00+9вюв343411 0.0 102169
02:00+9юв2333100 0.0 102143
05:00+9в3331100 0.0 102149
08:00+9вюв2334100 0.0 102260
11:00+14з1227100 0.0 1021356
14:00+16юв1224100 0.0 1020763
17:00+16зсз1123100 0.0 1020928
20:00+13з2239100 0.0 102254
3 марта, ср
ср323:00+11юз2245100 0.0 102235
02:00+11зюз3442100 0.0 102168
05:00+10ссз2352100 0.0 102173
08:00+9в3562100 0.1 1021220
11:00+12св225399 0.1 1020739
14:00+11ссз3362100 0.0 1019531
17:00+9ссв4679100 0.3 1019445
20:00+9в578299 0.2 1019386